DW7572 Weather Reports


Display with metric or nautical units.
time (UTC)temp
F
wind
direction
speed
MPH
gust
MPH
rain 1hr
in
rain 24hr
in
rain mn
in
humidity
%
barometer
mb
20260901104517 61 0.0 0.0 0.00 0.00 0.00 98 1014.7
20260901103538 61 0.0 0.0 0.00 0.00 0.00 98 1014.6
20260901102516 60 0.0 0.0 0.00 0.00 0.00 98 1014.6
20260901101517 62 0.0 0.0 0.00 0.00 0.00 98 1014.5
20260901100557 61 0.0 0.0 0.00 0.00 0.00 98 1014.5
20260901095517 61 0.0 0.0 0.00 0.00 0.00 98 1014.4
20260901094516 61 0.0 0.0 0.00 0.00 0.00 97 1014.5
20260901093516 61 0.0 0.0 0.00 0.00 0.00 98 1014.5
20260901092536 61 0.0 0.0 0.00 0.00 0.00 98 1014.5
20260901091517 61 0.0 0.0 0.00 0.00 0.00 98 1014.3
20260901090516 61 0.0 0.0 0.00 0.00 0.00 97 1014.2
20260901085516 62 0.0 0.0 0.00 0.00 0.00 97 1014.2
20260901084517 61 0.0 0.0 0.00 0.00 0.00 97 1014.2
20260901083517 62 0 1.0 2.0 0.00 0.00 0.00 97 1014.3
20260901082516 62 0 2.0 3.0 0.00 0.00 0.00 97 1014.4
20260901081536 62 0.0 2.0 0.00 0.00 0.00 97 1014.5
20260901080517 61 0 2.0 3.0 0.00 0.00 0.00 97 1014.3
20260901075517 61 0 1.0 2.0 0.00 0.00 0.00 97 1014.3
20260901074516 62 0.0 0.0 0.00 0.00 0.00 97 1014.4
20260901073516 62 0.0 1.0 0.00 0.00 0.00 97 1014.2
20260901072516 62 0.0 0.0 0.00 0.00 0.00 96 1014.4
20260901071536 62 0.0 0.0 0.00 0.00 0.00 97 1014.4
20260901070518 62 0.0 1.0 0.00 0.00 0.00 97 1014.5
20260901065519 62 0.0 1.0 0.00 0.00 0.00 97 1014.5
20260901064516 62 0.0 0.0 0.00 0.00 0.00 96 1014.5
20260901063554 62 0.0 0.0 0.00 0.00 0.00 95 1014.6
20260901062536 63 0 2.0 3.0 0.00 0.00 0.00 96 1014.7
20260901061516 64 0 2.0 3.0 0.00 0.00 0.00 96 1014.6
20260901060520 64 0 2.0 3.0 0.00 0.00 0.00 96 1014.7
20260901055521 64 0 2.0 3.0 0.00 0.00 0.00 96 1014.5
20260901054517 63 0 1.0 2.0 0.00 0.00 0.00 96 1014.5
20260901053518 63 0 2.0 4.0 0.00 0.00 0.00 96 1014.4
20260901052537 63 0 2.0 3.0 0.00 0.00 0.00 96 1014.3
20260901051518 63 0.0 0.0 0.00 0.00 0.00 95 1014.4
20260901050536 63 0.0 1.0 0.00 0.00 0.00 95 1014.4
20260901045517 63 0.0 0.0 0.00 0.00 0.00 95 1014.2
20260901044518 63 0.0 0.0 0.00 0.00 0.00 95 1014.2
20260901043522 64 0.0 0.0 0.00 0.00 0.00 95 1014.1
20260901042517 64 0.0 0.0 0.00 0.00 0.00 95 1014.0
20260901041517 64 0.0 0.0 0.00 0.00 0.00 94 1013.9
20260901040538 66 0 2.0 3.0 0.00 0.00 0.00 95 1013.9
20260901035517 65 0 1.0 3.0 0.00 0.00 0.00 94 1013.9
20260901034517 66 0 1.0 2.0 0.00 0.00 0.00 93 1013.8
20260901033537 66 0 1.0 2.0 0.00 0.00 0.00 94 1013.8
20260901032517 65 0.0 1.0 0.00 0.00 0.00 93 1013.6
20260901031517 66 0.0 2.0 0.00 0.00 0.00 91 1013.7
20260901030527 68 0.0 2.0 0.00 0.00 0.00 90 1013.7
20260901025517 70 0.0 0.0 0.00 0.00 0.00 89 1013.4
20260901024517 69 0.0 0.0 0.00 0.00 0.00 91 1013.4
20260901023517 69 0.0 0.0 0.00 0.00 0.00 92 1013.3
20260901022517 69 0.0 0.0 0.00 0.00 0.00 92 1013.4
20260901021517 69 0.0 0.0 0.00 0.00 0.00 91 1013.3
20260901020517 70 0.0 0.0 0.00 0.00 0.00 87 1013.3
20260901015519 72 0.0 1.0 0.00 0.00 0.00 83 1013.4
20260901014522 73 0 2.0 2.0 0.00 0.00 0.00 83 1013.5
20260901013517 73 0 2.0 2.0 0.00 0.00 0.00 81 1013.2
20260901012518 74 0 2.0 3.0 0.00 0.00 0.00 82 1013.3
20260901011516 75 0 2.0 2.0 0.00 0.00 0.00 79 1013.4
20260901010517 75 0 2.0 2.0 0.00 0.00 0.00 80 1013.4
20260901005516 76 0 2.0 3.0 0.00 0.00 0.00 77 1013.2
20260901004516 76 0 2.0 3.0 0.00 0.00 0.00 80 1013.1
20260901003516 77 0 2.0 3.0 0.00 0.00 0.00 76 1013.2
20260901002517 78 0 1.0 2.0 0.00 0.00 0.00 76 1013.1
20260901001516 78 338 4.0 6.0 0.00 0.00 0.00 74 1012.9
20260901000516 79 338 3.0 4.0 0.00 0.00 0.00 75 1012.9
20260831235522 79 338 4.0 5.0 0.00 0.00 0.00 75 1013.0
20260831234537 81 338 3.0 4.0 0.00 0.00 0.00 71 1013.1
20260831233542 81 338 3.0 5.0 0.00 0.00 0.00 68 1013.2
20260831232516 82 338 4.0 6.0 0.00 0.00 0.00 66 1013.1
20260831231516 82 0 4.0 8.0 0.00 0.00 0.00 66 1013.2
20260831230536 82 0 6.0 9.0 0.00 0.00 0.00 63 1013.0
20260831225516 83 338 8.0 11.0 0.00 0.00 0.00 63 1013.1
20260831224516 83 338 8.0 12.0 0.00 0.00 0.00 64 1013.1
20260831223516 84 315 6.0 9.0 0.00 0.00 0.00 61 1013.1
20260831222516 84 338 8.0 10.0 0.00 0.00 0.00 62 1013.0
20260831221516 85 338 7.0 10.0 0.00 0.00 0.00 59 1013.1
20260831220516 85 338 8.0 11.0 0.00 0.00 0.00 59 1013.0
20260831215516 86 338 6.0 10.0 0.00 0.00 0.00 58 1013.0
20260831214517 85 338 4.0 6.0 0.00 0.00 0.00 58 1013.1
20260831213516 85 315 6.0 9.0 0.00 0.00 0.00 54 1012.9
20260831212516 86 338 7.0 9.0 0.00 0.00 0.00 56 1012.7
20260831211536 85 338 5.0 8.0 0.00 0.00 0.00 57 1012.8
20260831210516 86 338 6.0 9.0 0.00 0.00 0.00 54 1012.6
20260831205516 86 0 7.0 10.0 0.00 0.00 0.00 57 1012.7
20260831204516 86 315 7.0 12.0 0.00 0.00 0.00 54 1012.6
20260831203517 86 338 6.0 10.0 0.00 0.00 0.00 55 1012.7
20260831202516 86 338 8.0 12.0 0.00 0.00 0.00 56 1012.6
20260831201516 86 0 6.0 9.0 0.00 0.00 0.00 58 1012.5
20260831200516 86 338 8.0 11.0 0.00 0.00 0.00 55 1012.5
20260831195557 86 338 7.0 11.0 0.00 0.00 0.00 59 1012.4
20260831194516 85 338 9.0 13.0 0.00 0.00 0.00 58 1012.6
20260831193516 85 338 8.0 13.0 0.00 0.00 0.00 57 1012.6
20260831192516 85 0 7.0 11.0 0.00 0.00 0.00 58 1012.5
20260831191516 84 0 8.0 11.0 0.00 0.00 0.00 58 1012.6
20260831190516 85 338 7.0 11.0 0.00 0.00 0.00 59 1012.6
20260831185516 84 338 9.0 12.0 0.00 0.00 0.00 59 1012.6
20260831184516 84 338 9.0 13.0 0.00 0.00 0.00 57 1012.5
20260831183537 83 338 7.0 10.0 0.00 0.00 0.00 66 1012.5
20260831182516 83 315 8.0 13.0 0.00 0.00 0.00 68 1012.6
20260831181516 83 315 10.0 14.0 0.00 0.00 0.00 69 1012.6
20260831180516 82 338 9.0 12.0 0.00 0.00 0.00 72 1012.5
20260831175516 81 315 9.0 12.0 0.00 0.00 0.00 72 1012.6
20260831174516 82 338 8.0 11.0 0.00 0.00 0.00 77 1012.8
20260831173516 81 315 8.0 12.0 0.00 0.00 0.00 77 1012.7
20260831172515 80 338 7.0 12.0 0.00 0.00 0.00 78 1012.6
20260831171515 81 293 7.0 11.0 0.00 0.00 0.00 82 1012.6
20260831170516 79 315 7.0 11.0 0.00 0.00 0.00 84 1012.8
20260831165537 79 315 8.0 11.0 0.00 0.00 0.00 84 1012.8
20260831164516 78 315 7.0 10.0 0.00 0.00 0.00 85 1012.7
20260831163516 78 338 9.0 12.0 0.00 0.00 0.00 85 1012.7
20260831162515 78 338 8.0 11.0 0.00 0.00 0.00 86 1012.7
20260831161516 78 338 9.0 12.0 0.00 0.00 0.00 86 1012.7
20260831160515 78 315 9.0 13.0 0.00 0.00 0.00 87 1012.4
20260831155515 78 315 9.0 14.0 0.00 0.00 0.00 88 1012.3
20260831154538 78 338 9.0 12.0 0.00 0.00 0.00 91 1012.1
20260831153517 77 315 8.0 11.0 0.00 0.00 0.00 92 1012.0
20260831152538 76 338 8.0 11.0 0.00 0.00 0.00 93 1011.9
20260831151517 76 315 8.0 12.0 0.00 0.00 0.00 94 1011.9
20260831150517 76 338 8.0 11.0 0.00 0.00 0.00 96 1011.6
20260831145518 75 315 9.0 12.0 0.00 0.00 0.00 96 1011.6
20260831144517 75 338 8.0 11.0 0.00 0.00 0.00 96 1011.4
20260831143517 74 315 5.0 8.0 0.00 0.00 0.00 97 1011.4
20260831142518 74 293 5.0 8.0 0.00 0.00 0.00 97 1011.5
20260831141517 73 293 5.0 8.0 0.00 0.00 0.00 97 1011.6
20260831140537 73 293 5.0 11.0 0.00 0.00 0.00 97 1011.5
20260831135517 73 293 5.0 9.0 0.00 0.00 0.00 97 1011.5
20260831134518 73 293 5.0 8.0 0.00 0.00 0.00 97 1011.1
20260831133517 72 293 6.0 9.0 0.00 0.00 0.00 97 1010.9
20260831132517 72 270 4.0 9.0 0.00 0.00 0.00 98 1010.6
20260831131518 72 293 4.0 7.0 0.00 0.00 0.00 98 1010.5
20260831130517 71 293 5.0 9.0 0.00 0.00 0.00 98 1010.3
20260831125517 70 293 4.0 8.0 0.00 0.00 0.00 98 1010.3
20260831124538 70 270 2.0 3.0 0.00 0.00 0.00 98 1010.2
20260831123517 69 180 1.0 3.0 0.00 0.00 0.00 99 1010.0
20260831122517 69 180 1.0 3.0 0.00 0.00 0.00 99 1009.7
20260831121517 68 180 1.0 3.0 0.00 0.00 0.00 98 1009.5
20260831120517 68 180 2.0 3.0 0.00 0.00 0.00 98 1009.2
20260831115517 68 180 2.0 4.0 0.00 0.00 0.00 98 1009.3
20260831114517 68 203 3.0 5.0 0.00 0.00 0.00 98 1009.3
20260831113517 68 203 4.0 6.0 0.00 0.00 0.00 98 1009.1
20260831112517 67 203 3.0 5.0 0.00 0.00 0.00 98 1009.0
20260831111517 67 203 2.0 4.0 0.00 0.00 0.00 98 1008.9
20260831110517 68 180 3.0 6.0 0.00 0.00 0.00 98 1008.8
20260831105537 68 203 3.0 5.0 0.00 0.00 0.00 98 1008.6